Regional Weather Roundup
Issued by NWS

Home | Current Version | Previous Version | Graphics & Text | Print | Product List | Glossary On
Versions: 1 2 3 4 5 6 7 8 9 10 11 12 13 14 15 16 17 18 19 20 21 22 23 24 25 26 27 28
000
ASUS45 KBOI 050310
RWRID

IDAHO REGIONAL WEATHER ROUNDUP
NATIONAL WEATHER SERVICE BOISE ID
900 PM MDT WED MAY 04 2016

NOTE: "FAIR" INDICATES FEW OR NO CLOUDS BELOW 12000 FEET
WITH NO SIGNIFICANT WEATHER AND/OR OBSTRUCTIONS TO VISIBILITY

IDZ012-014-050400-
SOUTHWEST IDAHO


CITY           SKY/WX    TMP DP  RH WIND       PRES   REMARKS
BOISE          CLOUDY    75  36  24 SE12      29.79F
CALDWELL       CLOUDY    70  49  47 CALM      29.77F
$$

IDZ016-017-050400-
SOUTHCENTRAL IDAHO


CITY           SKY/WX    TMP DP  RH WIND       PRES   REMARKS
BURLEY         CLOUDY    64  37  36 CALM      29.91F
JEROME         CLOUDY    66  39  37 E10       29.90F
TWIN FALLS     CLOUDY    66  35  31 SE15      29.90F
$$

IDZ019>023-050400-
SOUTHEAST IDAHO


CITY           SKY/WX    TMP DP  RH WIND       PRES   REMARKS
IDAHO FALLS    CLOUDY    65  36  34 S7        30.01S
POCATELLO      CLOUDY    60  36  40 SE8       29.98F
REXBURG        CLOUDY    65  33  30 S6        30.01S
$$

IDZ006-010-011-018-031-032-050400-
CENTRAL IDAHO MOUNTAINS


CITY           SKY/WX    TMP DP  RH WIND       PRES   REMARKS
MCCALL         CLOUDY    61  36  39 N5        29.92F
HAILEY         PTCLDY    61  39  44 S5        30.00S
STANLEY          N/A     52  31  44 S6        30.04S
SALMON         CLOUDY    64  39  39 SW3       29.87S
CHALLIS        CLOUDY    61  27  27 SW5       29.95F
$$

IDZ002-004-006-007-026-050400-
NORTHERN IDAHO


CITY           SKY/WX    TMP DP  RH WIND       PRES   REMARKS
LEWISTON       MOCLDY    73  49  42 W6        29.76F
LOWELL           N/A     62  55  77 CALM      29.77S
COEUR D`ALENE  MOCLDY    66  48  52 N6        29.79F
MULLAN PASS    MOCLDY    56  36  47 VRB5      29.99F
$$




USA.gov is the U.S. government's official web portal to all federal, state and local government web resources and services.